Hourly Weather Holovnytsya

Today, 12 April, Monday

Time Temperature Precipitation Wind Pressure Humidity
00:00 +5°C° 0 mm 3 mps 748 mmHg 65%
01:00 +5°C° 0 mm 3 mps 748 mmHg 65%
02:00 +4°C° 0 mm 3 mps 748 mmHg 65%
03:00 +4°C° 0 mm 3 mps 748 mmHg 65%
04:00 +4°C° 0 mm 3 mps 747 mmHg 66%
05:00 +3°C° 0 mm 3 mps 747 mmHg 67%
06:00 +5°C° 0 mm 3 mps 747 mmHg 63%
07:00 +7°C° 0 mm 3 mps 747 mmHg 59%
08:00 +9°C° 0 mm 3 mps 747 mmHg 55%
09:00 +10°C° 0 mm 3 mps 747 mmHg 49%
10:00 +12°C° 0 mm 3 mps 746 mmHg 44%
11:00 +14°C° 0 mm 3 mps 746 mmHg 38%
12:00 +16°C° 0 mm 3 mps 746 mmHg 37%
13:00 +16°C° 0 mm 3 mps 745 mmHg 35%
14:00 +17°C° 0 mm 3 mps 745 mmHg 33%
15:00 +17°C° 0 mm 2 mps 745 mmHg 34%
16:00 +17°C° 0 mm 2 mps 745 mmHg 35%
17:00 +17°C° 0 mm 2 mps 744 mmHg 37%
18:00 +15°C° 0 mm 2 mps 744 mmHg 43%
19:00 +13°C° 0 mm 2 mps 745 mmHg 49%
20:00 +10°C° 0 mm 3 mps 745 mmHg 55%
21:00 +10°C° 0 mm 3 mps 745 mmHg 59%
22:00 +9°C° 0 mm 3 mps 744 mmHg 62%
23:00 +8°C° 0 mm 3 mps 744 mmHg 66%

Tomorrow, 13 April, Tuesday

Time Temperature Precipitation Wind Pressure Humidity
00:00 +8°C° 0 mm 2 mps 744 mmHg 67%
01:00 +7°C° 0 mm 2 mps 744 mmHg 69%
02:00 +7°C° 0 mm 2 mps 744 mmHg 70%
03:00 +7°C° 0 mm 2 mps 744 mmHg 70%
04:00 +7°C° 0 mm 2 mps 744 mmHg 70%
05:00 +6°C° 0 mm 2 mps 744 mmHg 70%
06:00 +8°C° 0 mm 2 mps 744 mmHg 67%
07:00 +9°C° 0 mm 2 mps 744 mmHg 63%
08:00 +10°C° 0 mm 2 mps 744 mmHg 60%
09:00 +13°C° 0 mm 2 mps 744 mmHg 55%
10:00 +14°C° 0 mm 2 mps 744 mmHg 50%
11:00 +16°C° 0 mm 2 mps 743 mmHg 45%
12:00 +16°C° 0 mm 1 mps 743 mmHg 43%
13:00 +18°C° 0 mm 1 mps 743 mmHg 41%
14:00 +19°C° 0 mm 1 mps 743 mmHg 39%
15:00 +17°C° 0 mm 2 mps 742 mmHg 45%
16:00 +16°C° 0 mm 2 mps 742 mmHg 52%
17:00 +14°C° 0 mm 3 mps 742 mmHg 59%
18:00 +12°C° 0.1 mm 3 mps 742 mmHg 66%
19:00 +11°C° 0.1 mm 3 mps 742 mmHg 74%
20:00 +10°C° 0.1 mm 3 mps 742 mmHg 81%
21:00 +10°C° 0.1 mm 2 mps 742 mmHg 84%
22:00 +10°C° 0.1 mm 1 mps 741 mmHg 86%
23:00 +10°C° 0.1 mm 1 mps 741 mmHg 88%

Day after tomorrow, 14 April, Wednesday

Time Temperature Precipitation Wind Pressure Humidity
00:00 +10°C° 0.3 mm 1 mps 741 mmHg 90%
01:00 +10°C° 0.3 mm 1 mps 741 mmHg 91%
02:00 +10°C° 0.3 mm 1 mps 740 mmHg 92%
03:00 +10°C° 0.3 mm 1 mps 740 mmHg 93%
04:00 +10°C° 0.3 mm 1 mps 740 mmHg 94%
05:00 +10°C° 0.3 mm 1 mps 740 mmHg 94%
06:00 +9°C° 0.5 mm 1 mps 740 mmHg 94%
07:00 +9°C° 0.5 mm 1 mps 740 mmHg 95%
08:00 +9°C° 0.5 mm 1 mps 740 mmHg 95%
09:00 +9°C° 0.7 mm 1 mps 740 mmHg 95%
10:00 +9°C° 0.7 mm 1 mps 740 mmHg 94%
11:00 +8°C° 0.7 mm 2 mps 740 mmHg 94%
12:00 +8°C° 0.3 mm 2 mps 740 mmHg 93%
13:00 +8°C° 0.3 mm 2 mps 740 mmHg 93%
14:00 +8°C° 0.3 mm 2 mps 740 mmHg 92%
15:00 +8°C° 0.1 mm 2 mps 740 mmHg 92%
16:00 +7°C° 0.1 mm 2 mps 740 mmHg 92%
17:00 +7°C° 0.1 mm 2 mps 740 mmHg 92%
18:00 +7°C° 0.6 mm 2 mps 740 mmHg 93%
19:00 +6°C° 0.6 mm 2 mps 740 mmHg 93%
20:00 +5°C° 0.6 mm 3 mps 741 mmHg 94%
21:00 +5°C° 0.5 mm 3 mps 741 mmHg 94%
22:00 +4°C° 0.5 mm 3 mps 741 mmHg 94%
23:00 +5°C° 0.5 mm 2 mps 740 mmHg 94%

15 April, Thursday

Time Temperature Precipitation Wind Pressure Humidity
00:00 +5°C° 0.1 mm 2 mps 740 mmHg 94%
01:00 +5°C° 0.1 mm 2 mps 740 mmHg 94%
02:00 +5°C° 0.1 mm 2 mps 740 mmHg 94%
03:00 +4°C° 0.2 mm 2 mps 740 mmHg 94%
04:00 +4°C° 0.2 mm 2 mps 740 mmHg 94%
05:00 +4°C° 0.2 mm 2 mps 740 mmHg 95%
06:00 +4°C° 0.1 mm 2 mps 740 mmHg 94%
07:00 +5°C° 0.1 mm 2 mps 740 mmHg 94%
08:00 +5°C° 0.1 mm 2 mps 741 mmHg 93%
09:00 +5°C° 0.1 mm 2 mps 741 mmHg 93%
10:00 +6°C° 0.1 mm 2 mps 741 mmHg 92%
11:00 +5°C° 0.1 mm 3 mps 741 mmHg 91%
12:00 +7°C° 0 mm 3 mps 741 mmHg 88%
13:00 +7°C° 0 mm 3 mps 741 mmHg 86%
14:00 +8°C° 0 mm 3 mps 740 mmHg 83%
15:00 +8°C° 0.2 mm 3 mps 740 mmHg 85%
16:00 +7°C° 0.2 mm 4 mps 740 mmHg 86%
17:00 +6°C° 0.2 mm 4 mps 740 mmHg 88%
18:00 +6°C° 0.7 mm 4 mps 740 mmHg 90%
19:00 +6°C° 0.7 mm 4 mps 740 mmHg 92%
20:00 +5°C° 0.7 mm 4 mps 740 mmHg 94%
21:00 +5°C° 0.4 mm 4 mps 740 mmHg 94%
22:00 +5°C° 0.4 mm 4 mps 740 mmHg 95%
23:00 +5°C° 0.4 mm 4 mps 739 mmHg 95%

16 April, Friday

Time Temperature Precipitation Wind Pressure Humidity
00:00 +5°C° 0.4 mm 4 mps 739 mmHg 95%
01:00 +5°C° 0.4 mm 4 mps 739 mmHg 95%
02:00 +5°C° 0.4 mm 3 mps 739 mmHg 95%
03:00 +4°C° 0.5 mm 3 mps 738 mmHg 96%
04:00 +4°C° 0.5 mm 3 mps 738 mmHg 97%
05:00 +5°C° 0.5 mm 2 mps 738 mmHg 97%
06:00 +6°C° 0 mm 2 mps 738 mmHg 96%
07:00 +6°C° 0 mm 2 mps 738 mmHg 95%
08:00 +7°C° 0 mm 2 mps 738 mmHg 94%
09:00 +7°C° 0.1 mm 2 mps 738 mmHg 92%
10:00 +8°C° 0.1 mm 2 mps 739 mmHg 90%
11:00 +8°C° 0.1 mm 2 mps 739 mmHg 89%
12:00 +9°C° 0.3 mm 3 mps 738 mmHg 88%
13:00 +9°C° 0.3 mm 3 mps 738 mmHg 87%
14:00 +8°C° 0.3 mm 4 mps 738 mmHg 86%
15:00 +9°C° 1.2 mm 3 mps 738 mmHg 89%
16:00 +8°C° 1.2 mm 3 mps 738 mmHg 92%
17:00 +8°C° 1.2 mm 2 mps 738 mmHg 95%
18:00 +7°C° 0.3 mm 2 mps 738 mmHg 95%
19:00 +7°C° 0.3 mm 2 mps 738 mmHg 96%
20:00 +8°C° 0.3 mm 1 mps 739 mmHg 96%
21:00 +8°C° 0 mm 1 mps 739 mmHg 96%
22:00 +8°C° 0 mm 1 mps 739 mmHg 97%
23:00 +7°C° 0 mm 1 mps 739 mmHg 97%

17 April, Saturday

Time Temperature Precipitation Wind Pressure Humidity
00:00 +7°C° 0 mm 1 mps 740 mmHg 96%
01:00 +7°C° 0 mm 1 mps 740 mmHg 96%
02:00 +7°C° 0 mm 1 mps 740 mmHg 95%
03:00 +6°C° 0 mm 2 mps 741 mmHg 95%
04:00 +6°C° 0 mm 2 mps 741 mmHg 95%
05:00 +6°C° 0 mm 2 mps 741 mmHg 95%
06:00 +7°C° 0 mm 2 mps 742 mmHg 92%
07:00 +7°C° 0 mm 3 mps 743 mmHg 88%
08:00 +8°C° 0 mm 3 mps 743 mmHg 85%
09:00 +9°C° 0 mm 3 mps 743 mmHg 80%
10:00 +10°C° 0 mm 3 mps 744 mmHg 75%
11:00 +11°C° 0 mm 4 mps 744 mmHg 69%
12:00 +11°C° 0.1 mm 4 mps 744 mmHg 67%
13:00 +12°C° 0.1 mm 4 mps 744 mmHg 64%
14:00 +13°C° 0.1 mm 4 mps 744 mmHg 61%
15:00 +12°C° 0.1 mm 4 mps 745 mmHg 64%
16:00 +11°C° 0.1 mm 3 mps 745 mmHg 68%
17:00 +11°C° 0.1 mm 3 mps 745 mmHg 71%
18:00 +10°C° 0 mm 3 mps 746 mmHg 74%
19:00 +9°C° 0 mm 2 mps 746 mmHg 78%
20:00 +8°C° 0 mm 2 mps 746 mmHg 82%
21:00 +8°C° 0 mm 2 mps 747 mmHg 82%
22:00 +8°C° 0 mm 2 mps 747 mmHg 83%
23:00 +7°C° 0 mm 2 mps 747 mmHg 84%
Show more